Hourly Weather Runhury

Today, 21 April, Wednesday

Time Temperature Precipitation Wind Pressure Humidity
00:00 +6°C° 0 mm 2 mps 719 mmHg 88%
01:00 +6°C° 0 mm 2 mps 718 mmHg 87%
02:00 +6°C° 0 mm 2 mps 719 mmHg 87%
03:00 +6°C° 0 mm 2 mps 719 mmHg 88%
04:00 +6°C° 0 mm 2 mps 719 mmHg 87%
05:00 +6°C° 0 mm 2 mps 719 mmHg 83%
06:00 +6°C° 0 mm 2 mps 719 mmHg 79%
07:00 +6°C° 0 mm 2 mps 720 mmHg 85%
08:00 +9°C° 0 mm 2 mps 720 mmHg 85%
09:00 +10°C° 0 mm 3 mps 720 mmHg 79%
10:00 +12°C° 0 mm 2 mps 721 mmHg 79%
11:00 +13°C° 0 mm 2 mps 721 mmHg 79%
12:00 +12°C° 0 mm 3 mps 721 mmHg 80%
13:00 +11°C° 0.4 mm 4 mps 720 mmHg 88%
14:00 +14°C° 0 mm 1 mps 720 mmHg 80%
15:00 +14°C° 0.1 mm 2 mps 720 mmHg 82%
16:00 +15°C° 0 mm 1 mps 719 mmHg 79%
17:00 +13°C° 0 mm 3 mps 720 mmHg 76%
18:00 +13°C° 0 mm 1 mps 720 mmHg 85%
19:00 +13°C° 0 mm 2 mps 720 mmHg 84%
20:00 +10°C° 0 mm 3 mps 720 mmHg 82%
21:00 +8°C° 0 mm 4 mps 720 mmHg 81%
22:00 +8°C° 0 mm 5 mps 720 mmHg 79%
23:00 +7°C° 0 mm 6 mps 720 mmHg 79%

Tomorrow, 22 April, Thursday

Time Temperature Precipitation Wind Pressure Humidity
00:00 +7°C° 0 mm 5 mps 720 mmHg 83%
01:00 +7°C° 0 mm 4 mps 720 mmHg 83%
02:00 +7°C° 0 mm 5 mps 720 mmHg 85%
03:00 +8°C° 0 mm 3 mps 720 mmHg 86%
04:00 +8°C° 0 mm 2 mps 720 mmHg 86%
05:00 +8°C° 0 mm 1 mps 720 mmHg 86%
06:00 +9°C° 0 mm 1 mps 720 mmHg 85%
07:00 +9°C° 0 mm 1 mps 721 mmHg 87%
08:00 +10°C° 0 mm 1 mps 721 mmHg 89%
09:00 +12°C° 0 mm 2 mps 722 mmHg 86%
10:00 +12°C° 0 mm 3 mps 722 mmHg 83%
11:00 +13°C° 0 mm 3 mps 722 mmHg 81%
12:00 +13°C° 0 mm 4 mps 722 mmHg 79%
13:00 +13°C° 0 mm 5 mps 721 mmHg 84%
14:00 +14°C° 0 mm 6 mps 721 mmHg 80%
15:00 +14°C° 0 mm 6 mps 721 mmHg 79%
16:00 +14°C° 0 mm 5 mps 720 mmHg 75%
17:00 +14°C° 0 mm 5 mps 720 mmHg 76%
18:00 +13°C° 0 mm 5 mps 720 mmHg 81%
19:00 +12°C° 0 mm 5 mps 720 mmHg 86%
20:00 +10°C° 0 mm 4 mps 721 mmHg 93%
21:00 +7°C° 0.4 mm 5 mps 721 mmHg 100%
22:00 +7°C° 2.4 mm 3 mps 721 mmHg 100%
23:00 +7°C° 1.7 mm 3 mps 721 mmHg 100%

Day after tomorrow, 23 April, Friday

Time Temperature Precipitation Wind Pressure Humidity
00:00 +8°C° 2 mm 1 mps 721 mmHg 100%
01:00 +7°C° 0 mm 2 mps 721 mmHg 98%
02:00 +6°C° 0 mm 2 mps 721 mmHg 98%
03:00 +5°C° 0 mm 3 mps 721 mmHg 99%
04:00 +6°C° 0 mm 2 mps 722 mmHg 96%
05:00 +6°C° 0 mm 1 mps 722 mmHg 98%
06:00 +6°C° 0 mm 1 mps 722 mmHg 98%
07:00 +5°C° 0.2 mm 1 mps 722 mmHg 95%
08:00 +5°C° 0.2 mm 2 mps 722 mmHg 98%
09:00 +4°C° 0.7 mm 3 mps 723 mmHg 92%
10:00 +7°C° 0 mm 3 mps 723 mmHg 89%
11:00 +7°C° 0 mm 2 mps 722 mmHg 94%
12:00 +8°C° 0.4 mm 2 mps 722 mmHg 93%
13:00 +6°C° 0.8 mm 4 mps 722 mmHg 99%
14:00 +7°C° 0.5 mm 5 mps 722 mmHg 100%
15:00 +6°C° 1.9 mm 5 mps 722 mmHg 98%
16:00 +6°C° 0 mm 5 mps 722 mmHg 95%
17:00 +6°C° 0.1 mm 4 mps 723 mmHg 87%
18:00 +7°C° 0.1 mm 3 mps 722 mmHg 86%
19:00 +7°C° 0 mm 2 mps 722 mmHg 92%
20:00 +5°C° 0 mm 3 mps 723 mmHg 91%
21:00 +5°C° 0 mm 3 mps 723 mmHg 92%
22:00 +3°C° 0.3 mm 3 mps 723 mmHg 97%
23:00 +3°C° 0 mm 3 mps 723 mmHg 96%

24 April, Saturday

Time Temperature Precipitation Wind Pressure Humidity
00:00 +3°C° 0 mm 3 mps 723 mmHg 96%
01:00 +1°C° 0 mm 4 mps 723 mmHg 100%
02:00 +1°C° 0 mm 5 mps 724 mmHg 94%
03:00 0°C° 0 mm 4 mps 724 mmHg 91%
04:00 0°C° 0 mm 4 mps 724 mmHg 91%
05:00 0°C° 0 mm 4 mps 724 mmHg 91%
06:00 +1°C° 0 mm 3 mps 724 mmHg 90%
07:00 +2°C° 0 mm 3 mps 725 mmHg 88%
08:00 +3°C° 0 mm 3 mps 725 mmHg 85%
09:00 +4°C° 0 mm 3 mps 725 mmHg 86%
10:00 +5°C° 0.1 mm 4 mps 725 mmHg 87%
11:00 +5°C° 0 mm 5 mps 725 mmHg 88%
12:00 +4°C° 0 mm 6 mps 725 mmHg 86%
13:00 +6°C° 0 mm 5 mps 725 mmHg 92%
14:00 +7°C° 1.1 mm 3 mps 724 mmHg 95%
15:00 +7°C° 0.6 mm 4 mps 725 mmHg 85%
16:00 +7°C° 0.8 mm 3 mps 724 mmHg 92%
17:00 +7°C° 1.2 mm 2 mps 724 mmHg 94%
18:00 +7°C° 0.1 mm 3 mps 724 mmHg 87%
19:00 +6°C° 0.4 mm 2 mps 724 mmHg 91%
20:00 +5°C° 0.4 mm 2 mps 724 mmHg 97%
21:00 +6°C° 0 mm 1 mps 724 mmHg 97%
22:00 +6°C° 0.4 mm 1 mps 724 mmHg 100%
23:00 +5°C° 0 mm 1 mps 724 mmHg 99%

25 April, Sunday

Time Temperature Precipitation Wind Pressure Humidity
00:00 +4°C° 0 mm 2 mps 723 mmHg 91%
01:00 +3°C° 0 mm 3 mps 723 mmHg 85%
02:00 +2°C° 0 mm 3 mps 722 mmHg 82%
03:00 +3°C° 0 mm 3 mps 721 mmHg 81%
04:00 +3°C° 0 mm 4 mps 721 mmHg 79%
05:00 +2°C° 0 mm 5 mps 721 mmHg 83%
06:00 +2°C° 0 mm 3 mps 721 mmHg 92%
07:00 +3°C° 0.1 mm 3 mps 722 mmHg 96%
08:00 +1°C° 0.4 mm 6 mps 722 mmHg 100%
09:00 +2°C° 0.1 mm 6 mps 723 mmHg 94%
10:00 +1°C° 0.4 mm 6 mps 723 mmHg 99%
11:00 +2°C° 0 mm 5 mps 723 mmHg 88%
12:00 +2°C° 0.4 mm 5 mps 724 mmHg 91%
13:00 +3°C° 0 mm 6 mps 723 mmHg 80%
14:00 +4°C° 0 mm 6 mps 723 mmHg 82%
15:00 +4°C° 0 mm 6 mps 723 mmHg 77%
16:00 +5°C° 0 mm 5 mps 723 mmHg 79%
17:00 +6°C° 0 mm 4 mps 722 mmHg 74%
18:00 +5°C° 0.1 mm 2 mps 722 mmHg 85%
19:00 +4°C° 0 mm 3 mps 722 mmHg 83%
20:00 +4°C° 0 mm 2 mps 722 mmHg 91%
21:00 +4°C° 0 mm 2 mps 722 mmHg 92%
22:00 +3°C° 0 mm 2 mps 722 mmHg 97%
23:00 +2°C° 0 mm 3 mps 722 mmHg 99%

26 April, Monday

Time Temperature Precipitation Wind Pressure Humidity
00:00 +1°C° 0 mm 3 mps 722 mmHg 99%
01:00 +2°C° 0 mm 2 mps 722 mmHg 100%
02:00 +2°C° 0 mm 1 mps 722 mmHg 99%
03:00 +2°C° 0 mm 1 mps 721 mmHg 98%
04:00 +1°C° 0 mm 0 mps 721 mmHg 96%
05:00 +1°C° 0 mm 0 mps 721 mmHg 95%
06:00 +1°C° 0 mm 0 mps 721 mmHg 97%
07:00 +1°C° 0 mm 0 mps 721 mmHg 99%
08:00 +3°C° 0 mm 0 mps 721 mmHg 96%
09:00 +1°C° 1.8 mm 3 mps 721 mmHg 100%
10:00 +1°C° 0.8 mm 6 mps 721 mmHg 100%
11:00 +2°C° 0 mm 6 mps 721 mmHg 95%
12:00 +3°C° 0 mm 6 mps 721 mmHg 89%
13:00 +4°C° 0 mm 7 mps 721 mmHg 93%
14:00 +3°C° 0.2 mm 6 mps 721 mmHg 87%
15:00 +3°C° 0.2 mm 6 mps 721 mmHg 88%
16:00 +4°C° 0.7 mm 4 mps 721 mmHg 90%
17:00 +4°C° 1.1 mm 4 mps 722 mmHg 91%
18:00 +3°C° 1.1 mm 3 mps 722 mmHg 97%
19:00 +4°C° 0.2 mm 4 mps 722 mmHg 87%
20:00 +3°C° 0.2 mm 3 mps 722 mmHg 92%
21:00 +1°C° 0 mm 4 mps 722 mmHg 97%
22:00 0°C° 0 mm 4 mps 722 mmHg 98%
23:00 0°C° 0 mm 4 mps 722 mmHg 97%
Show more